Regional Weather Roundup
Issued by NWS

Home | Current Version | Previous Version | Graphics & Text | Print | Product List | Glossary On
Versions: 1 2 3 4 5 6 7 8 9 10 11 12 13 14 15 16 17 18 19 20 21 22 23 24 25 26 27 28
000
ASUS45 KTFX 200610
RWRMT
MONTANA REGIONAL WEATHER ROUNDUP
NATIONAL WEATHER SERVICE GREAT FALLS MT
1100 PM MST MON FEB 19 2018

NOTE: "FAIR" INDICATES FEW OR NO CLOUDS BELOW 12000 FEET WITH NO
SIGNIFICANT WEATHER AND/OR OBSTRUCTIONS TO VISIBILITY.

MTZ001>007-043-200700-
WEST OF THE DIVIDE

CITY           SKY/WX    TMP DP  RH WIND       PRES   REMARKS
KALISPELL      FAIR     -12 -16  82 CALM      30.06R
MISSOULA       CLOUDY     8  -1  66 CALM      30.04R
BUTTE          FAIR     -16 -21  78 SE6       29.82S WCI -31
MULLAN PASS    CLOUDY    -4  -7  87 CALM      29.77R
ANACONDA         N/A     -8 -11  84 S3        29.88S
DEER LODGE       N/A     -8 -11  84 CALM      29.93R
HAMILTON         N/A      3   0  85 MISG      30.01R
RONAN            N/A    -17 -22  76 NE6       30.08R WCI -31
$$

MTZ008-052>055-200700-
SOUTHWEST MONTANA

CITY           SKY/WX    TMP DP  RH WIND       PRES   REMARKS
BOZEMAN        CLOUDY    -7 -13  75 E3        29.94R
DILLON         FAIR     -21 -21 100 SW7       29.84S WCI -38
ENNIS          CLOUDY   -13 -20  70 CALM      29.88S
W YELLOWSTONE  MOCLDY   -24 -29  76 CALM      29.68R
THREE FORKS      N/A     -5 -13  68 CALM      29.94R
TWIN BRIDGES     N/A     -8 -19  58 CALM      29.88S
$$

MTZ009-010-012-014-046-048-049-054-200700-
EAST SLOPES AND CENTRAL MONTANA

CITY           SKY/WX    TMP DP  RH WIND       PRES   REMARKS
CUT BANK       FAIR     -17 -22  78 W5        29.94S
GREAT FALLS    FAIR     -14 -21  71 SW12      29.97F WCI -35
MALMSTROM AFB  MOCLDY   -11 -14  86 SW8       30.00F WCI -27
HELENA         FAIR      -3  -9  75 CALM      29.98R
AUGUSTA        FAIR     -16 -21  77 W8        29.90S WCI -34
BOWMANS CRNR   FAIR     -16 -19  87 SW6       29.90S WCI -31
CONRAD           N/A    -23 -31  66 W1        29.98
FAIRFIELD      FAIR     -12 -17  76 CALM      29.95S
POWER          FAIR     -19 -25  76 SW10      29.96S WCI -40
RAYNESFORD     CLOUDY   -11 -17  75 E3        29.95F
ULM            FAIR     -13 -19  75 S9        30.00R WCI -31
WHITE SULPHUR    N/A    -18 -24  76 CALM      29.85S
$$

MTZ011-013-016-021-045-047-050-051-200700-
NORTH CENTRAL MONTANA

CITY           SKY/WX    TMP DP  RH WIND       PRES   REMARKS
HAVRE          FAIR     -10 -14  82 SW12      30.08F WCI -30
LEWISTOWN      FAIR     -20 -23  86 SE7       29.93S WCI -37
N BAR RANCH    FAIR     -15 -24  64 SW9       29.92F WCI -33
CHINOOK          N/A     -8 -13  77 NE3       30.11F
GEYSER         FLURRIES  -6 -15  66 SW12      29.92F WCI -25
STANFORD       FAIR     -10 -17  71 SW6       29.89F WCI -24
WINIFRED       FLURRIES -11 -15  81 W6        29.97F WCI -25
$$

MTZ017>020-022>027-061-062-200700-
NORTHEAST MONTANA

CITY           SKY/WX    TMP DP  RH WIND       PRES   REMARKS
GLASGOW        CLOUDY    -4  -9  79 NW5       30.10F
GLENDIVE       LGT SNOW   2  -2  83 W6        30.10R FOG     WCI  -9
JORDAN           N/A    -11 -17  75 W5        30.09S
MALTA          CLOUDY   -15 -20  76 SW6       30.11F WCI -29
SIDNEY         LGT SNOW   2  -3  80 SW3       30.15R
WOLF POINT     CLOUDY    -1  -6  79 SW6       30.16R WCI -13
PLENTYWOOD       N/A      0  -6  78 CALM      30.09F
POPLAR           N/A     -2  -8  78 CALM      30.15S
SCOBEY           N/A     -4 -13  65 CALM      30.04F
$$

MTZ028>42-056>058-200700-
SOUTHCENTRAL AND SOUTHEAST MONTANA

CITY           SKY/WX    TMP DP  RH WIND       PRES   REMARKS
BAKER          CLOUDY    -1  -4  87 W5        30.06R
BILLINGS       FLURRIES  -4  -8  83 W5        30.01R
LIVINGSTON     FAIR     -16 -20  82 W5        29.90S
MILES CITY     LGT SNOW  -1  -4  87 W6        30.09R FOG     WCI -13
BIG TIMBER     CLEAR    -15 -20  76 W7        29.94S WCI -31
EKALAKA          N/A     -3 -11  69 SE1       29.95R
FORSYTH          N/A      1  -2  85 SW3       30.09R
HARLOWTON      FAIR     -20 -25  76 W13       29.92S WCI -43
LAUREL           N/A     -9 -15  77 W3        30.04R
$$

REGIONAL REPORTS...DAKOTAS

CITY           SKY/WX    TMP DP  RH WIND       PRES   REMARKS
WILLISTON      LGT SNOW   3  -1  83 W5        30.14F FOG
MINOT          LGT SNOW   5   0  79 NW5       30.14F
DICKINSON      LGT SNOW   1  -3  83 NW5       30.05R FOG
BEACH          LGT SNOW   1  -2  85 CALM      30.09R
CROSBY         FAIR      -2  -8  78 SW8       30.12F WCI -17
TIOGA          FAIR       0  -2  92 W5        30.10R FOG
WATFORD CITY   CLOUDY     1  -2  85 CALM      30.12S FOG
BISMARCK       LGT SNOW   4  -2  76 N10       30.13R WCI -11
GRAND FORKS    LGT SNOW   5  -1  76 N16       30.18F WCI -14
FARGO          SNOW       5   2  87 N21G30    30.08F VSB 1/2 WCI -16
BUFFALO SD       N/A      1  -5  75 N3        29.96R
RAPID CITY     LGT SNOW  -1  -5  82 N13       29.97F FOG     WCI -19
$$

REGIONAL REPORTS...WYOMING/IDAHO/WASHINGTON

CITY           SKY/WX    TMP DP  RH WIND       PRES   REMARKS
GILLETTE       CLOUDY   -12 -16  82 NW6       29.89F WCI -26
SHERIDAN       CLOUDY    -2  -7  79 W7        29.95F HAZE    WCI -15
BUFFALO WY     FAIR      -6 -12  75 NW7       29.84F WCI -20
CODY           CLOUDY    -6 -11  79 CALM      29.87S
YELLOWSTONE LA   N/A    -19 -24  77 W3        29.62R
IDAHO FALLS    CLOUDY    12  -3  51 NE14      29.78R WCI  -3
SALMON         FAIR      12   2  64 CALM      29.89R
BOISE          FAIR      17   4  56 W12       29.99R WCI   4
SPOKANE        FAIR       9  -1  64 SW3       30.09S
$$

REGIONAL REPORTS...ALBERTA

CITY           SKY/WX    TMP DP  RH WIND       PRES   REMARKS
CALGARY        CLEAR      1  -9  60 SW6       29.91S WCI -10
CARDSTON         N/A    -22 -27  76 SE3         N/A
EDMONTON       CLEAR      1 -11  55 W9        29.92R WCI -14
FORT MCMURRAY  LGT SNOW  -4  -9  77 N13       30.04  WCI -23
HIGH LEVEL     FLURRIES  -6 -15  65 N5        30.16R
LETHBRIDGE     CLEAR    -17 -26  63 SW13      30.00S WCI -39
LLOYDMINSTER   CLOUDY     7   0  72 SW10      29.87F WCI  -8
MEDICINE HAT   CLEAR    -11 -15  84 SW12      30.06F WCI -31
PEACE RIVER    MOCLDY    12  -4  48 W7        29.99R WCI   2
PINCHER CREEK  CLEAR    -13 -18  77 W13       29.93S WCI -34
WATERTON GATE    N/A     -6 -13  71 S9          N/A  WCI -22
$$

REGIONAL REPORTS...SASKATCHEWAN

CITY           SKY/WX    TMP DP  RH WIND       PRES   REMARKS
CORONACH         N/A     -6  -9  84 NW5         N/A
CYPRESS HILLS    N/A    -11 -17  77 W3          N/A
ESTEVAN        CLOUDY    -6  -9  84 SW7       30.11F WCI -20
MOOSE JAW        N/A     -4  -9  77 SW10        N/A  WCI -21
PRINCE ALBERT  CLEAR     -6 -11  77 SW5       30.00S
REGINA         PTCLDY   -11 -15  84 SW8       30.08S WCI -28
ROCKGLEN         N/A     -6  -9  84 SW8         N/A  WCI -21
SASKATOON      PTCLDY    -6 -11  77 SW13      30.02F WCI -25
SWIFT CURRENT  CLEAR     -9 -17  70 SW12      29.99S WCI -29
VAL MARIE        N/A    -18 -26  69 SW2         N/A
$$




USA.gov is the U.S. government's official web portal to all federal, state and local government web resources and services.